Time,TemperatureF,DewpointF,PressureIn,WindDirection,WindDirectionDegrees,WindSpeedMPH,WindSpeedGustMPH,Humidity,HourlyPrecipIn,Conditions,Clouds,dailyrainin,SoftwareType,DateUTC
2013-07-22 06:14:00,71.4,67.3,29.83,SSE,150,0.0,2.0,87,0.00,,---,0.12,VWS V14.01,2013-07-22 11:14:00,
2013-07-22 06:15:00,65.6,65.0,29.80,SE,125,0.0,2.0,98,0.00,,---,0.00,VWS V14.01,2013-07-22 11:15:00,
2013-07-22 06:16:00,65.6,65.0,29.80,SE,126,0.0,2.0,98,0.00,,---,0.00,VWS V14.01,2013-07-22 11:16:00,
2013-07-22 06:18:00,65.6,65.0,29.80,SE,141,0.0,2.0,98,0.00,,---,0.00,VWS V14.01,2013-07-22 11:18:00,
2013-07-22 06:24:00,65.6,65.0,29.80,SE,140,0.0,2.0,98,0.00,,---,0.00,VWS V14.01,2013-07-22 11:24:00,
2013-07-22 06:29:00,65.6,65.0,29.80,SE,140,0.0,2.0,98,0.00,,---,0.00,VWS V14.01,2013-07-22 11:29:00,
2013-07-22 06:30:00,65.6,65.0,29.80,SE,140,0.0,2.0,98,0.00,,---,0.00,VWS V14.01,2013-07-22 11:30:00,
2013-07-22 06:34:00,65.6,65.0,29.80,SE,128,0.0,1.0,98,0.00,,---,0.00,VWS V14.01,2013-07-22 11:34:00,
2013-07-22 06:39:00,65.6,65.0,29.80,SE,129,0.0,1.0,98,0.00,,---,0.00,VWS V14.01,2013-07-22 11:39:00,
2013-07-22 06:44:00,65.8,65.2,29.80,SE,139,2.0,2.0,98,0.00,,---,0.00,VWS V14.01,2013-07-22 11:44:00,
2013-07-22 06:49:00,66.0,65.4,29.80,SE,145,1.0,3.0,98,0.00,,---,0.00,VWS V14.01,2013-07-22 11:49:00,
2013-07-22 06:54:00,66.4,65.8,29.80,SSE,149,2.0,3.0,98,0.00,,---,0.00,VWS V14.01,2013-07-22 11:54:00,
2013-07-22 06:59:00,66.7,65.8,29.80,South,177,0.0,0.0,97,0.00,,---,0.00,VWS V14.01,2013-07-22 11:59:00,
2013-07-22 07:00:00,66.7,65.8,29.80,WSW,253,0.0,3.0,97,0.00,,---,0.00,VWS V14.01,2013-07-22 12:00:00,
2013-07-22 07:04:00,67.1,66.2,29.80,SE,140,2.0,3.0,97,0.00,,---,0.00,VWS V14.01,2013-07-22 12:04:00,
2013-07-22 07:09:00,67.4,66.5,29.80,SW,222,1.0,4.0,97,0.00,,---,0.00,VWS V14.01,2013-07-22 12:09:00,
2013-07-22 07:14:00,67.6,66.7,29.80,SE,134,1.0,5.0,97,0.00,,---,0.00,VWS V14.01,2013-07-22 12:14:00,
2013-07-22 07:20:00,67.8,66.6,29.80,South,186,2.0,5.0,96,0.00,,---,0.00,VWS V14.01,2013-07-22 12:20:00,
2013-07-22 07:25:00,68.1,66.9,29.80,SSE,167,2.0,5.0,96,0.00,,---,0.00,VWS V14.01,2013-07-22 12:25:00,
2013-07-22 07:30:00,68.3,66.8,29.80,West,260,2.0,3.0,95,0.00,,---,0.00,VWS V14.01,2013-07-22 12:30:00,
2013-07-22 07:35:00,68.6,67.1,29.80,SE,125,3.0,3.0,95,0.00,,---,0.00,VWS V14.01,2013-07-22 12:35:00,
2013-07-22 07:40:00,68.8,67.0,29.80,South,184,0.0,5.0,94,0.00,,---,0.00,VWS V14.01,2013-07-22 12:40:00,
2013-07-22 07:45:00,69.2,67.4,29.80,SSE,165,1.0,5.0,94,0.00,,---,0.00,VWS V14.01,2013-07-22 12:45:00,
2013-07-22 07:50:00,69.3,67.2,29.80,WSW,238,1.0,5.0,93,0.00,,---,0.00,VWS V14.01,2013-07-22 12:50:00,
2013-07-22 07:55:00,69.7,67.6,29.81,SSE,153,2.0,5.0,93,0.00,,---,0.00,VWS V14.01,2013-07-22 12:55:00,
2013-07-22 08:00:00,70.2,67.8,29.81,ESE,117,1.0,2.0,92,0.00,,---,0.00,VWS V14.01,2013-07-22 13:00:00,
2013-07-22 08:05:00,70.5,67.8,29.82,East,85,1.0,3.0,91,0.00,,---,0.00,VWS V14.01,2013-07-22 13:05:00,
2013-07-22 08:10:00,70.6,67.8,29.81,SSW,212,3.0,4.0,91,0.00,,---,0.00,VWS V14.01,2013-07-22 13:10:00,
2013-07-22 08:15:00,70.9,68.2,29.81,South,191,3.0,4.0,91,0.00,,---,0.00,VWS V14.01,2013-07-22 13:15:00,
2013-07-22 08:20:00,71.2,68.4,29.81,SSE,148,3.0,4.0,91,0.00,,---,0.00,VWS V14.01,2013-07-22 13:20:00,
2013-07-22 08:25:00,71.6,68.5,29.82,ESE,106,4.0,6.0,90,0.00,,---,0.00,VWS V14.01,2013-07-22 13:25:00,
2013-07-22 08:30:00,72.0,68.9,29.82,South,172,2.0,4.0,90,0.00,,---,0.00,VWS V14.01,2013-07-22 13:30:00,
2013-07-22 08:35:00,72.5,69.1,29.82,SW,233,0.0,5.0,89,0.00,,---,0.00,VWS V14.01,2013-07-22 13:35:00,
2013-07-22 08:40:00,73.1,69.3,29.83,East,94,0.0,5.0,88,0.00,,---,0.00,VWS V14.01,2013-07-22 13:40:00,
2013-07-22 08:45:00,73.6,69.5,29.82,SW,233,1.0,5.0,87,0.00,,---,0.00,VWS V14.01,2013-07-22 13:45:00,
2013-07-22 08:50:00,74.0,69.9,29.82,SW,219,1.0,5.0,87,0.00,,---,0.00,VWS V14.01,2013-07-22 13:50:00,
2013-07-22 08:55:00,74.3,69.8,29.83,WNW,285,2.0,5.0,86,0.00,,---,0.00,VWS V14.01,2013-07-22 13:55:00,
2013-07-22 09:00:00,74.8,70.0,29.83,ESE,122,1.0,4.0,85,0.00,,---,0.00,VWS V14.01,2013-07-22 14:00:00,
2013-07-22 09:06:00,75.4,70.2,29.83,SSE,148,2.0,4.0,84,0.00,,---,0.00,VWS V14.01,2013-07-22 14:06:00,
2013-07-22 09:11:00,75.5,70.3,29.83,ESE,117,3.0,4.0,84,0.00,,---,0.00,VWS V14.01,2013-07-22 14:11:00,
2013-07-22 09:16:00,75.7,70.9,29.83,SSW,208,0.0,4.0,85,0.00,,---,0.00,VWS V14.01,2013-07-22 14:16:00,
2013-07-22 09:21:00,76.2,70.7,29.83,West,274,2.0,5.0,83,0.00,,---,0.00,VWS V14.01,2013-07-22 14:21:00,
2013-07-22 09:26:00,76.7,71.2,29.82,ESE,117,0.0,5.0,83,0.00,,---,0.00,VWS V14.01,2013-07-22 14:26:00,
2013-07-22 09:30:00,76.8,71.2,29.82,SSE,164,1.0,5.0,83,0.00,,---,0.00,VWS V14.01,2013-07-22 14:30:00,
2013-07-22 09:31:00,77.1,71.2,29.82,WSW,246,2.0,3.0,82,0.00,,---,0.00,VWS V14.01,2013-07-22 14:31:00,
2013-07-22 09:36:00,77.7,71.4,29.82,SW,232,0.0,3.0,81,0.00,,---,0.00,VWS V14.01,2013-07-22 14:36:00,
2013-07-22 09:41:00,78.3,72.0,29.82,ENE,61,1.0,4.0,81,0.00,,---,0.00,VWS V14.01,2013-07-22 14:41:00,
2013-07-22 09:46:00,78.4,72.1,29.82,SSW,207,1.0,5.0,81,0.00,,---,0.00,VWS V14.01,2013-07-22 14:46:00,
2013-07-22 09:51:00,79.1,72.4,29.82,SSW,198,2.0,5.0,80,0.00,,---,0.00,VWS V14.01,2013-07-22 14:51:00,
2013-07-22 09:56:00,78.9,71.8,29.82,SE,125,1.0,5.0,79,0.00,,---,0.00,VWS V14.01,2013-07-22 14:56:00,
2013-07-22 10:00:00,78.9,71.8,29.82,ESE,104,0.0,5.0,79,0.00,,---,0.00,VWS V14.01,2013-07-22 15:00:00,
2013-07-22 10:01:00,79.2,72.5,29.82,SSE,150,4.0,4.0,80,0.00,,---,0.00,VWS V14.01,2013-07-22 15:01:00,
2013-07-22 10:06:00,79.9,72.8,29.81,SSW,204,2.0,5.0,79,0.00,,---,0.00,VWS V14.01,2013-07-22 15:06:00,
2013-07-22 10:11:00,80.6,73.1,29.81,SSW,208,1.0,5.0,78,0.00,,---,0.00,VWS V14.01,2013-07-22 15:11:00,
2013-07-22 10:17:00,80.8,73.3,29.81,ESE,120,3.0,5.0,78,0.00,,---,0.00,VWS V14.01,2013-07-22 15:17:00,
2013-07-22 10:22:00,81.3,73.4,29.81,SSE,162,0.0,5.0,77,0.00,,---,0.00,VWS V14.01,2013-07-22 15:22:00,
2013-07-22 10:27:00,81.9,73.2,29.80,East,97,1.0,5.0,75,0.00,,---,0.00,VWS V14.01,2013-07-22 15:27:00,
2013-07-22 10:30:00,81.9,73.2,29.80,SE,138,4.0,5.0,75,0.00,,---,0.00,VWS V14.01,2013-07-22 15:30:00,
2013-07-22 10:32:00,82.3,74.0,29.80,SSW,212,2.0,4.0,76,0.00,,---,0.00,VWS V14.01,2013-07-22 15:32:00,
2013-07-22 10:37:00,83.3,74.6,29.80,SW,225,1.0,4.0,75,0.00,,---,0.00,VWS V14.01,2013-07-22 15:37:00,
2013-07-22 10:42:00,83.9,74.3,29.80,WSW,240,2.0,5.0,73,0.00,,---,0.00,VWS V14.01,2013-07-22 15:42:00,
2013-07-22 10:47:00,84.6,74.6,29.80,West,263,2.0,5.0,72,0.00,,---,0.00,VWS V14.01,2013-07-22 15:47:00,
2013-07-22 10:53:00,84.8,73.9,29.80,ESE,107,1.0,5.0,70,0.00,,---,0.00,VWS V14.01,2013-07-22 15:53:00,
2013-07-22 10:58:00,85.3,74.0,29.80,West,262,2.0,5.0,69,0.00,,---,0.00,VWS V14.01,2013-07-22 15:58:00,
2013-07-22 11:00:00,85.2,74.3,29.80,SW,217,5.0,6.0,70,0.00,,---,0.00,VWS V14.01,2013-07-22 16:00:00,
2013-07-22 11:03:00,85.1,74.2,29.80,SE,137,3.0,4.0,70,0.00,,---,0.00,VWS V14.01,2013-07-22 16:03:00,
2013-07-22 18:53:00,85.2,74.3,29.80,SW,222,2.0,4.0,70,0.00,,---,0.00,VWS V14.01,2013-07-22 23:53:00,
2013-07-22 18:54:00,91.9,72.9,29.71,SSW,207,3.0,4.0,54,0.00,,---,0.00,VWS V14.01,2013-07-22 23:54:00,
2013-07-22 18:59:00,91.8,73.3,29.71,SW,215,3.0,3.0,55,0.00,,---,0.00,VWS V14.01,2013-07-22 23:59:00,
2013-07-22 19:00:00,91.9,73.4,29.71,ESE,103,2.0,6.0,55,0.00,,---,0.00,VWS V14.01,2013-07-23 00:00:00,
2013-07-22 19:04:00,91.7,73.8,29.71,SSW,203,1.0,5.0,56,0.00,,---,0.00,VWS V14.01,2013-07-23 00:04:00,
2013-07-22 19:09:00,91.7,72.7,29.71,SSW,193,4.0,5.0,54,0.00,,---,0.00,VWS V14.01,2013-07-23 00:09:00,
2013-07-22 19:14:00,91.3,72.3,29.71,SE,125,5.0,7.0,54,0.00,,---,0.00,VWS V14.01,2013-07-23 00:14:00,
2013-07-22 19:19:00,91.1,72.7,29.71,East,95,1.0,7.0,55,0.00,,---,0.00,VWS V14.01,2013-07-23 00:19:00,
2013-07-22 19:25:00,91.1,72.7,29.71,WNW,302,2.0,7.0,55,0.00,,---,0.00,VWS V14.01,2013-07-23 00:25:00,
2013-07-22 19:30:00,90.8,72.4,29.71,South,188,3.0,5.0,55,0.00,,---,0.00,VWS V14.01,2013-07-23 00:30:00,
2013-07-22 19:35:00,90.3,72.5,29.71,South,187,5.0,6.0,56,0.00,,---,0.00,VWS V14.01,2013-07-23 00:35:00,
2013-07-22 19:40:00,89.8,72.6,29.71,SW,222,4.0,6.0,57,0.00,,---,0.00,VWS V14.01,2013-07-23 00:40:00,
2013-07-22 19:45:00,89.3,73.1,29.71,SSE,156,1.0,11.0,59,0.00,,---,0.00,VWS V14.01,2013-07-23 00:45:00,
2013-07-22 19:50:00,88.8,73.1,29.71,SW,231,0.0,11.0,60,0.00,,---,0.00,VWS V14.01,2013-07-23 00:50:00,
2013-07-22 19:55:00,88.4,73.2,29.72,SE,130,0.0,11.0,61,0.00,,---,0.00,VWS V14.01,2013-07-23 00:55:00,
2013-07-22 20:00:00,88.1,73.4,29.73,South,184,0.0,0.0,62,0.00,,---,0.00,VWS V14.01,2013-07-23 01:00:00,
2013-07-22 20:05:00,88.0,72.9,29.74,SW,219,0.0,1.0,61,0.00,,---,0.00,VWS V14.01,2013-07-23 01:05:00,
2013-07-22 20:10:00,87.8,73.6,29.74,ENE,61,2.0,2.0,63,0.00,,---,0.00,VWS V14.01,2013-07-23 01:10:00,
2013-07-22 20:16:00,86.3,69.3,29.75,East,80,5.0,16.0,57,0.00,,---,0.00,VWS V14.01,2013-07-23 01:16:00,
2013-07-22 20:21:00,79.1,65.0,29.76,NNE,16,8.0,20.0,62,0.00,,---,0.00,VWS V14.01,2013-07-23 01:21:00,
2013-07-22 20:26:00,75.6,63.9,29.78,ENE,69,10.0,20.0,67,0.00,,---,0.00,VWS V14.01,2013-07-23 01:26:00,
2013-07-22 20:30:00,74.6,63.8,29.79,NE,46,8.0,20.0,69,0.00,,---,0.00,VWS V14.01,2013-07-23 01:30:00,
2013-07-22 20:31:00,74.0,63.6,29.79,West,270,4.0,14.0,70,0.00,,---,0.00,VWS V14.01,2013-07-23 01:31:00,
2013-07-22 20:36:00,73.0,63.5,29.80,ESE,115,6.0,14.0,72,0.00,,---,0.00,VWS V14.01,2013-07-23 01:36:00,
2013-07-22 20:41:00,72.4,63.3,29.79,ESE,103,3.0,18.0,73,0.00,,---,0.00,VWS V14.01,2013-07-23 01:41:00,
2013-07-22 20:46:00,72.3,63.2,29.78,ENE,68,5.0,18.0,73,0.00,,---,0.00,VWS V14.01,2013-07-23 01:46:00,
2013-07-22 20:51:00,72.3,63.2,29.82,WNW,285,1.0,18.0,73,0.00,,---,0.00,VWS V14.01,2013-07-23 01:51:00,
2013-07-22 20:56:00,72.5,63.0,29.83,WNW,287,2.0,18.0,72,0.00,,---,0.00,VWS V14.01,2013-07-23 01:56:00,
2013-07-22 21:00:00,72.6,62.7,29.82,ENE,65,6.0,18.0,71,0.00,,---,0.00,VWS V14.01,2013-07-23 02:00:00,
2013-07-22 21:01:00,72.7,62.8,29.83,ENE,78,2.0,13.0,71,0.00,,---,0.00,VWS V14.01,2013-07-23 02:01:00,
2013-07-22 21:06:00,73.0,63.0,29.87,NNW,348,10.0,14.0,71,0.00,,---,0.00,VWS V14.01,2013-07-23 02:06:00,
2013-07-22 21:11:00,73.3,64.5,29.88,WSW,252,4.0,17.0,74,0.00,,---,0.00,VWS V14.01,2013-07-23 02:11:00,
2013-07-22 21:16:00,73.1,63.2,29.83,ENE,67,13.0,17.0,71,0.00,,---,0.00,VWS V14.01,2013-07-23 02:16:00,
2013-07-22 21:22:00,72.6,60.6,29.85,NW,305,7.0,17.0,66,0.00,,---,0.00,VWS V14.01,2013-07-23 02:22:00,
2013-07-22 21:27:00,71.7,61.0,29.85,WNW,288,2.0,17.0,69,0.00,,---,0.00,VWS V14.01,2013-07-23 02:27:00,
2013-07-22 21:30:00,71.3,61.0,29.85,WNW,300,1.0,17.0,70,0.00,,---,0.00,VWS V14.01,2013-07-23 02:30:00,
2013-07-22 21:32:00,70.9,62.2,29.85,NNW,345,3.0,8.0,74,0.00,,---,0.00,VWS V14.01,2013-07-23 02:32:00,
2013-07-22 21:37:00,70.0,63.5,29.86,WNW,300,5.0,8.0,80,0.02,,---,0.02,VWS V14.01,2013-07-23 02:37:00,
2013-07-22 21:42:00,69.2,64.5,29.86,South,169,1.0,12.0,85,0.03,,---,0.03,VWS V14.01,2013-07-23 02:42:00,
2013-07-22 21:47:00,68.7,65.3,29.84,SW,218,2.0,13.0,89,0.09,,---,0.09,VWS V14.01,2013-07-23 02:47:00,
2013-07-22 21:52:00,68.6,66.2,29.83,SE,142,1.0,13.0,92,0.11,,---,0.11,VWS V14.01,2013-07-23 02:52:00,
2013-07-22 21:57:00,68.9,66.8,29.82,WSW,238,0.0,13.0,93,0.11,,---,0.11,VWS V14.01,2013-07-23 02:57:00,
2013-07-22 22:00:00,69.0,66.9,29.82,WSW,242,2.0,13.0,93,0.11,,---,0.11,VWS V14.01,2013-07-23 03:00:00,
2013-07-22 22:02:00,69.2,67.1,29.84,WSW,242,2.0,11.0,93,0.11,,---,0.11,VWS V14.01,2013-07-23 03:02:00,
2013-07-22 22:07:00,69.4,67.0,29.83,WNW,284,1.0,11.0,92,0.11,,---,0.11,VWS V14.01,2013-07-23 03:07:00,
2013-07-22 22:12:00,69.4,67.0,29.83,SW,218,0.0,11.0,92,0.11,,---,0.11,VWS V14.01,2013-07-23 03:12:00,
2013-07-22 22:17:00,69.2,66.8,29.83,West,269,1.0,11.0,92,0.11,,---,0.11,VWS V14.01,2013-07-23 03:17:00,
2013-07-22 22:22:00,69.0,66.6,29.83,SW,232,1.0,11.0,92,0.11,,---,0.11,VWS V14.01,2013-07-23 03:22:00,
2013-07-22 22:27:00,69.0,66.6,29.82,SW,224,1.0,11.0,92,0.11,,---,0.11,VWS V14.01,2013-07-23 03:27:00,
2013-07-22 22:30:00,69.0,66.3,29.82,West,279,0.0,11.0,91,0.11,,---,0.11,VWS V14.01,2013-07-23 03:30:00,
2013-07-22 22:32:00,69.2,66.2,29.81,West,280,0.0,0.0,90,0.11,,---,0.11,VWS V14.01,2013-07-23 03:32:00,
2013-07-22 22:37:00,69.4,66.3,29.81,WSW,250,0.0,2.0,90,0.11,,---,0.11,VWS V14.01,2013-07-23 03:37:00,
2013-07-22 22:42:00,69.4,66.3,29.80,SW,218,0.0,2.0,90,0.11,,---,0.11,VWS V14.01,2013-07-23 03:42:00,
2013-07-22 22:47:00,69.1,66.4,29.79,SW,219,0.0,2.0,91,0.11,,---,0.11,VWS V14.01,2013-07-23 03:47:00,
2013-07-22 22:52:00,68.9,65.8,29.79,West,266,0.0,2.0,90,0.11,,---,0.11,VWS V14.01,2013-07-23 03:52:00,
2013-07-22 22:57:00,68.9,66.2,29.78,WSW,253,0.0,2.0,91,0.11,,---,0.11,VWS V14.01,2013-07-23 03:57:00,
2013-07-22 23:00:00,68.8,66.1,29.78,SW,225,0.0,2.0,91,0.11,,---,0.11,VWS V14.01,2013-07-23 04:00:00,
2013-07-22 23:01:00,68.8,66.1,29.78,WSW,242,1.0,1.0,91,0.00,,---,0.11,VWS V14.01,2013-07-23 04:01:00,
2013-07-22 23:02:00,68.8,65.8,29.78,WSW,248,0.0,1.0,90,0.00,,---,0.11,VWS V14.01,2013-07-23 04:02:00,
2013-07-22 23:07:00,68.6,65.9,29.79,West,260,0.0,1.0,91,0.00,,---,0.11,VWS V14.01,2013-07-23 04:07:00,
2013-07-22 23:12:00,68.5,66.1,29.79,SW,225,0.0,3.0,92,0.00,,---,0.11,VWS V14.01,2013-07-23 04:12:00,
2013-07-22 23:17:00,68.1,65.1,29.79,South,191,0.0,3.0,90,0.00,,---,0.11,VWS V14.01,2013-07-23 04:17:00,
2013-07-22 23:22:00,68.1,65.4,29.79,SW,225,0.0,3.0,91,0.00,,---,0.11,VWS V14.01,2013-07-23 04:22:00,
2013-07-22 23:27:00,68.0,65.3,29.78,West,262,0.0,3.0,91,0.00,,---,0.11,VWS V14.01,2013-07-23 04:27:00,
2013-07-22 23:30:00,67.9,65.2,29.78,West,266,1.0,3.0,91,0.00,,---,0.11,VWS V14.01,2013-07-23 04:30:00,
2013-07-22 23:32:00,67.7,65.0,29.78,West,262,0.0,2.0,91,0.00,,---,0.11,VWS V14.01,2013-07-23 04:32:00,
2013-07-22 23:37:00,67.7,65.0,29.78,WSW,239,0.0,2.0,91,0.00,,---,0.11,VWS V14.01,2013-07-23 04:37:00,
2013-07-22 23:42:00,67.5,64.8,29.78,West,265,0.0,2.0,91,0.00,,---,0.11,VWS V14.01,2013-07-23 04:42:00,
2013-07-22 23:47:00,67.6,64.9,29.79,West,264,1.0,2.0,91,0.00,,---,0.11,VWS V14.01,2013-07-23 04:47:00,
2013-07-22 23:52:00,67.6,64.9,29.78,WNW,294,1.0,2.0,91,0.00,,---,0.11,VWS V14.01,2013-07-23 04:52:00,
2013-07-22 23:57:00,67.8,64.8,29.78,West,267,0.0,2.0,90,0.00,,---,0.11,VWS V14.01,2013-07-23 04:57:00,